AAL2714 KEGE-KMIA

Flight info

Callsign AAL2714
Flight time N/A
Altitude 37000
Route APRES2 APRES COORZ DVV DUUZE DDC END DWINE JRHED ORRTH OYSTY BLVNS Y290 DOWRY FROGZ5
Aircraft A319/M-SDE3FGHIRWY/LB1

Departure

Time 2026-05-05 00:13
Airport Eagle County Regional Airport (KEGE)

Arrival

Time N/A
Airport Miami International Airport (KMIA)
Time Latitude Longitude Altitude Speed Heading
2026-05-04 23:49 39.64162 -106.90744 6536 ft 0 kts 170°
2026-05-05 00:05 39.64173 -106.90746 6544 ft 4 kts 133°
2026-05-05 00:05 39.64173 -106.90757 6542 ft 4 kts 65°
2026-05-05 00:05 39.64166 -106.90781 6533 ft 1 kts 81°
2026-05-05 00:06 39.64166 -106.90785 6529 ft 0 kts 81°
2026-05-05 00:08 39.64173 -106.90762 6542 ft 6 kts 68°
2026-05-05 00:08 39.64200 -106.90689 6537 ft 12 kts 63°
2026-05-05 00:09 39.64261 -106.90622 6537 ft 12 kts 39°
2026-05-05 00:09 39.64284 -106.90518 6539 ft 12 kts 83°
2026-05-05 00:09 39.64294 -106.90416 6542 ft 11 kts 82°
2026-05-05 00:09 39.64304 -106.90324 6545 ft 10 kts 82°
2026-05-05 00:10 39.64313 -106.90241 6547 ft 9 kts 82°
2026-05-05 00:10 39.64321 -106.90167 6549 ft 8 kts 82°
2026-05-05 00:10 39.64329 -106.90104 6551 ft 7 kts 81°
2026-05-05 00:10 39.64338 -106.90052 6552 ft 5 kts 68°
2026-05-05 00:11 39.64361 -106.90017 6553 ft 6 kts 28°
2026-05-05 00:11 39.64415 -106.90025 6553 ft 9 kts 337°
2026-05-05 00:11 39.64443 -106.90100 6551 ft 12 kts 256°
2026-05-05 00:11 39.64436 -106.90157 6549 ft 0 kts 262°
2026-05-05 00:12 39.64436 -106.90164 6549 ft 5 kts 262°
2026-05-05 00:12 39.64407 -106.90425 6542 ft 57 kts 262°
2026-05-05 00:12 39.64322 -106.91193 6525 ft 115 kts 262°
2026-05-05 00:12 39.64180 -106.92463 6578 ft 159 kts 260°
2026-05-05 00:13 39.63988 -106.93786 7304 ft 149 kts 241°
2026-05-05 00:13 39.63230 -106.94714 7850 ft 154 kts 216°
2026-05-05 00:13 39.62352 -106.95540 8374 ft 159 kts 217°
2026-05-05 00:13 39.61428 -106.96470 8551 ft 179 kts 218°
2026-05-05 00:14 39.60393 -106.97533 8729 ft 200 kts 218°
2026-05-05 00:14 39.59254 -106.98739 8894 ft 223 kts 219°
2026-05-05 00:14 39.58184 -107.00314 9048 ft 245 kts 239°
2026-05-05 00:14 39.57563 -107.02451 9277 ft 265 kts 261°
2026-05-05 00:15 39.57593 -107.04843 9987 ft 266 kts 281°
2026-05-05 00:15 39.58187 -107.07068 10970 ft 260 kts 296°
2026-05-05 00:15 39.59253 -107.08966 11778 ft 264 kts 313°
2026-05-05 00:15 39.60756 -107.10358 12581 ft 270 kts 330°
2026-05-05 00:16 39.62572 -107.11081 13379 ft 279 kts 348°
2026-05-05 00:16 39.64540 -107.11004 14086 ft 291 kts
2026-05-05 00:16 39.66532 -107.10444 14757 ft 294 kts
2026-05-05 00:16 39.68540 -107.09875 15424 ft 297 kts
2026-05-05 00:17 39.70519 -107.09005 16072 ft 307 kts 25°
2026-05-05 00:17 39.72215 -107.07263 16681 ft 318 kts 47°
2026-05-05 00:17 39.73389 -107.04744 16928 ft 340 kts 71°
2026-05-05 00:17 39.73842 -107.01642 17074 ft 361 kts 83°
2026-05-05 00:18 39.74151 -106.98312 17202 ft 381 kts 83°
2026-05-05 00:18 39.74480 -106.94830 17476 ft 394 kts 83°
2026-05-05 00:18 39.74824 -106.91270 18008 ft 400 kts 82°
2026-05-05 00:18 39.75181 -106.87669 18554 ft 404 kts 82°
2026-05-05 00:19 39.75543 -106.84036 19015 ft 407 kts 82°
2026-05-05 00:19 39.75907 -106.80374 19560 ft 410 kts 82°
2026-05-05 00:19 39.76272 -106.76689 20081 ft 413 kts 82°
2026-05-05 00:19 39.76637 -106.72967 20588 ft 417 kts 82°
2026-05-05 00:20 39.77004 -106.69212 21088 ft 421 kts 82°
2026-05-05 00:20 39.77377 -106.65422 21563 ft 425 kts 82°
2026-05-05 00:20 39.77750 -106.61602 22078 ft 428 kts 82°
2026-05-05 00:20 39.78115 -106.57804 22557 ft 431 kts 82°
2026-05-05 00:21 39.78491 -106.53870 23037 ft 435 kts 82°
2026-05-05 00:21 39.78864 -106.49961 23497 ft 438 kts 82°
2026-05-05 00:21 39.79240 -106.46009 23876 ft 442 kts 82°
2026-05-05 00:21 39.79613 -106.42077 24240 ft 445 kts 82°
2026-05-05 00:22 39.79990 -106.38071 24618 ft 448 kts 82°
2026-05-05 00:22 39.80371 -106.34032 24982 ft 452 kts 82°
2026-05-05 00:22 39.80754 -106.29967 25386 ft 454 kts 82°
2026-05-05 00:22 39.81137 -106.25878 25759 ft 457 kts 82°
2026-05-05 00:23 39.81518 -106.21767 26113 ft 460 kts 82°
2026-05-05 00:23 39.81905 -106.17617 26455 ft 463 kts 82°
2026-05-05 00:23 39.82294 -106.13447 26808 ft 467 kts 82°
2026-05-05 00:23 39.82685 -106.09240 27156 ft 470 kts 82°
2026-05-05 00:24 39.83077 -106.04999 27498 ft 473 kts 82°
2026-05-05 00:24 39.83467 -106.00735 27861 ft 477 kts 82°
2026-05-05 00:24 39.83857 -105.96436 28199 ft 480 kts 82°
2026-05-05 00:24 39.84247 -105.92103 28521 ft 484 kts 82°
2026-05-05 00:25 39.84639 -105.87738 28870 ft 487 kts 82°
2026-05-05 00:25 39.85035 -105.83344 29202 ft 490 kts 82°
2026-05-05 00:25 39.85430 -105.78932 29535 ft 493 kts 82°
2026-05-05 00:25 39.85692 -105.75987 29725 ft 495 kts 82°
2026-05-05 00:26 39.86080 -105.71525 30016 ft 498 kts 83°
2026-05-05 00:26 39.86379 -105.67007 30242 ft 503 kts 85°
2026-05-05 00:26 39.86573 -105.62449 30462 ft 507 kts 86°
2026-05-05 00:26 39.86697 -105.57848 30691 ft 511 kts 87°
2026-05-05 00:27 39.86792 -105.53215 30892 ft 514 kts 88°
2026-05-05 00:27 39.86890 -105.48548 31081 ft 518 kts 87°
2026-05-05 00:27 39.87010 -105.43836 31241 ft 523 kts 87°
2026-05-05 00:27 39.87153 -105.39077 31372 ft 528 kts 86°
2026-05-05 00:28 39.87313 -105.34292 31598 ft 531 kts 86°
2026-05-05 00:28 39.87480 -105.29466 31819 ft 535 kts 86°
2026-05-05 00:28 39.87648 -105.24632 32087 ft 537 kts 86°
2026-05-05 00:28 39.87813 -105.19754 32334 ft 540 kts 86°
2026-05-05 00:29 39.87974 -105.14859 32575 ft 542 kts 86°
2026-05-05 00:29 39.88128 -105.10002 32802 ft 545 kts 86°
2026-05-05 00:29 39.88277 -105.05128 33036 ft 548 kts 86°
2026-05-05 00:29 39.88423 -105.00169 33290 ft 550 kts 86°
2026-05-05 00:30 39.88566 -104.95173 33458 ft 553 kts 86°
2026-05-05 00:30 39.88710 -104.90169 33735 ft 555 kts 86°
2026-05-05 00:30 39.88856 -104.85122 33994 ft 558 kts 86°
2026-05-05 00:30 39.88999 -104.80075 34249 ft 560 kts 86°
2026-05-05 00:31 39.89137 -104.75002 34495 ft 562 kts 86°
2026-05-05 00:31 39.89249 -104.69900 34716 ft 564 kts 90°
2026-05-05 00:31 39.88977 -104.64797 34920 ft 566 kts 99°
2026-05-05 00:31 39.88189 -104.59788 35131 ft 565 kts 109°
2026-05-05 00:32 39.86918 -104.54970 35373 ft 561 kts 118°
2026-05-05 00:32 39.85349 -104.50328 35594 ft 561 kts 120°
2026-05-05 00:32 39.83765 -104.45686 35819 ft 562 kts 120°
2026-05-05 00:32 39.82177 -104.41035 36047 ft 563 kts 120°
2026-05-05 00:33 39.80583 -104.36381 36253 ft 564 kts 120°
2026-05-05 00:33 39.78984 -104.31717 36440 ft 565 kts 121°
2026-05-05 00:33 39.77376 -104.27041 36632 ft 566 kts 121°
2026-05-05 00:33 39.75766 -104.22362 36781 ft 568 kts 121°
2026-05-05 00:34 39.74153 -104.17684 36800 ft 569 kts 121°
2026-05-05 00:34 39.70910 -104.08291 36746 ft 570 kts 121°
2026-05-05 00:35 39.67667 -103.98901 36740 ft 570 kts 121°
2026-05-05 00:35 39.64407 -103.89528 36742 ft 570 kts 121°
2026-05-05 00:36 39.61125 -103.80139 36751 ft 574 kts 121°
2026-05-05 00:36 39.57830 -103.70720 36735 ft 574 kts 121°
2026-05-05 00:37 39.54530 -103.61307 36736 ft 574 kts 121°
2026-05-05 00:37 39.51217 -103.51893 36731 ft 574 kts 121°
2026-05-05 00:38 39.47895 -103.42508 36740 ft 574 kts 121°
2026-05-05 00:38 39.44564 -103.33120 36699 ft 574 kts 121°
2026-05-05 00:39 39.41223 -103.23729 36702 ft 575 kts 121°
2026-05-05 00:39 39.37891 -103.14404 36709 ft 575 kts 121°
2026-05-05 00:40 39.34529 -103.05026 36710 ft 576 kts 121°
2026-05-05 00:40 39.31158 -102.95639 36708 ft 576 kts 121°
2026-05-05 00:41 39.27779 -102.86252 36704 ft 577 kts 121°
2026-05-05 00:41 39.24389 -102.76859 36724 ft 577 kts 121°
2026-05-05 00:42 39.20992 -102.67480 36708 ft 577 kts 121°
2026-05-05 00:42 39.17584 -102.58103 36712 ft 578 kts 121°
2026-05-05 00:43 39.14161 -102.48742 36734 ft 578 kts 121°
2026-05-05 00:43 39.10733 -102.39385 36750 ft 577 kts 121°
2026-05-05 00:44 39.07313 -102.30048 36742 ft 577 kts 121°
2026-05-05 00:44 39.03875 -102.20706 36724 ft 577 kts 121°
2026-05-05 00:45 39.00431 -102.11377 36642 ft 577 kts 121°
2026-05-05 00:45 38.96976 -102.02071 36663 ft 577 kts 121°
2026-05-05 00:46 38.93531 -101.92833 36616 ft 577 kts 121°
2026-05-05 00:46 38.90066 -101.83532 36623 ft 577 kts 121°
2026-05-05 00:47 38.86600 -101.74254 36626 ft 577 kts 121°
2026-05-05 00:47 38.82477 -101.65585 36650 ft 563 kts 135°
2026-05-05 00:48 38.77797 -101.57517 36612 ft 565 kts 135°
2026-05-05 00:48 38.73115 -101.49402 36652 ft 568 kts 134°
2026-05-05 00:49 38.68424 -101.41277 36651 ft 567 kts 134°
2026-05-05 00:49 38.63736 -101.33186 36646 ft 566 kts 134°
2026-05-05 00:50 38.59035 -101.25116 36659 ft 566 kts 135°
2026-05-05 00:50 38.54322 -101.17067 36646 ft 565 kts 134°
2026-05-05 00:51 38.49621 -101.09032 36676 ft 565 kts 134°
2026-05-05 00:51 38.44917 -101.00996 36698 ft 565 kts 134°
2026-05-05 00:52 38.40213 -100.92973 36704 ft 565 kts 134°
2026-05-05 00:52 38.35497 -100.84967 36675 ft 564 kts 134°
2026-05-05 00:53 38.30805 -100.77032 36665 ft 564 kts 134°
2026-05-05 00:53 38.26083 -100.69065 36650 ft 564 kts 134°
2026-05-05 00:54 38.21356 -100.61104 36632 ft 564 kts 134°
2026-05-05 00:54 38.16630 -100.53150 36618 ft 564 kts 134°
2026-05-05 00:55 38.11889 -100.45186 36621 ft 565 kts 134°
2026-05-05 00:55 38.07135 -100.37237 36628 ft 565 kts 134°
2026-05-05 00:56 38.02369 -100.29305 36632 ft 566 kts 134°
2026-05-05 00:56 37.97605 -100.21361 36630 ft 566 kts 134°
2026-05-05 00:57 37.92832 -100.13427 36654 ft 566 kts 134°
2026-05-05 00:57 37.88047 -100.05510 36665 ft 566 kts 134°
2026-05-05 00:58 37.83196 -99.97663 36673 ft 564 kts 137°
2026-05-05 00:58 37.78091 -99.90254 36673 ft 561 kts 140°
2026-05-05 00:59 37.72784 -99.82974 36687 ft 560 kts 140°
2026-05-05 00:59 37.67575 -99.75735 36662 ft 561 kts 139°
2026-05-05 01:00 37.62403 -99.68362 36635 ft 561 kts 139°
2026-05-05 01:00 37.57239 -99.60974 36608 ft 561 kts 139°
2026-05-05 01:01 37.52068 -99.53639 36607 ft 559 kts 139°
2026-05-05 01:01 37.46875 -99.46341 36617 ft 558 kts 139°
2026-05-05 01:02 37.41692 -99.39075 36609 ft 558 kts 139°
2026-05-05 01:02 37.36518 -99.31803 36604 ft 558 kts 139°
2026-05-05 01:03 37.31349 -99.24537 36570 ft 556 kts 139°
2026-05-05 01:03 37.26179 -99.17324 36578 ft 555 kts 139°
2026-05-05 01:04 37.21004 -99.10135 36586 ft 555 kts 139°
2026-05-05 01:04 37.13242 -98.99344 36557 ft 556 kts 139°
2026-05-05 01:05 37.08059 -98.92144 36553 ft 557 kts 139°
2026-05-05 01:05 37.02856 -98.84953 36566 ft 557 kts 139°
2026-05-05 01:06 36.97653 -98.77767 36563 ft 557 kts 139°
2026-05-05 01:06 36.92435 -98.70584 36607 ft 558 kts 139°
2026-05-05 01:07 36.87216 -98.63416 36576 ft 558 kts 139°
2026-05-05 01:07 36.81984 -98.56243 36585 ft 559 kts 139°
2026-05-05 01:08 36.76743 -98.49076 36581 ft 559 kts 139°
2026-05-05 01:08 36.71505 -98.41915 36550 ft 559 kts 139°
2026-05-05 01:09 36.66262 -98.34760 36535 ft 559 kts 139°
2026-05-05 01:09 36.61037 -98.27672 36552 ft 559 kts 139°
2026-05-05 01:10 36.55776 -98.20540 36557 ft 559 kts 139°
2026-05-05 01:10 36.50509 -98.13412 36578 ft 559 kts 139°
2026-05-05 01:11 36.45245 -98.06304 36599 ft 558 kts 139°
2026-05-05 01:11 36.39969 -97.99180 36638 ft 561 kts 139°
2026-05-05 01:12 36.34688 -97.92073 36613 ft 558 kts 139°
2026-05-05 01:12 36.29608 -97.84772 36603 ft 561 kts 134°
2026-05-05 01:13 36.24778 -97.77161 36579 ft 562 kts 133°
2026-05-05 01:13 36.19967 -97.69529 36635 ft 562 kts 133°
2026-05-05 01:14 36.15059 -97.62015 36630 ft 561 kts 135°
2026-05-05 01:14 36.10100 -97.54574 36661 ft 561 kts 135°
2026-05-05 01:15 36.05984 -97.48382 36639 ft 561 kts 135°
2026-05-05 01:15 36.01045 -97.40904 36600 ft 561 kts 134°
2026-05-05 01:16 35.96111 -97.33420 36645 ft 563 kts 134°
2026-05-05 01:16 35.91163 -97.25940 36656 ft 562 kts 134°
2026-05-05 01:17 35.86198 -97.18481 36652 ft 562 kts 135°
2026-05-05 01:17 35.81235 -97.11047 36659 ft 562 kts 135°
2026-05-05 01:18 35.76298 -97.03663 36685 ft 562 kts 135°
2026-05-05 01:18 35.71325 -96.96227 36697 ft 562 kts 135°
2026-05-05 01:19 35.66359 -96.88811 36701 ft 562 kts 135°
2026-05-05 01:19 35.61383 -96.81398 36725 ft 562 kts 135°
2026-05-05 01:20 35.56397 -96.74000 36656 ft 562 kts 135°
2026-05-05 01:20 35.51397 -96.66604 36704 ft 563 kts 135°
2026-05-05 01:21 35.46387 -96.59213 36709 ft 563 kts 135°
2026-05-05 01:21 35.41381 -96.51827 36716 ft 563 kts 135°
2026-05-05 01:22 35.36382 -96.44454 36729 ft 563 kts 135°
2026-05-05 01:22 35.31372 -96.37088 36711 ft 562 kts 135°
2026-05-05 01:23 35.26355 -96.29741 36721 ft 563 kts 135°
2026-05-05 01:23 35.21369 -96.22451 36733 ft 562 kts 135°
2026-05-05 01:24 35.16229 -96.15280 36740 ft 560 kts 138°
2026-05-05 01:24 35.10885 -96.08377 36764 ft 558 kts 139°
2026-05-05 01:25 35.05517 -96.01523 36733 ft 559 kts 139°
2026-05-05 01:25 35.00210 -95.94586 36754 ft 560 kts 138°
2026-05-05 01:26 34.94939 -95.87603 36765 ft 560 kts 138°
2026-05-05 01:26 34.89651 -95.80634 36770 ft 559 kts 139°
2026-05-05 01:27 34.84348 -95.73715 36734 ft 559 kts 139°
2026-05-05 01:27 34.79028 -95.66803 36767 ft 560 kts 138°
2026-05-05 01:28 34.73702 -95.59873 36769 ft 561 kts 138°
2026-05-05 01:28 34.68367 -95.52952 36770 ft 561 kts 139°
2026-05-05 01:29 34.63053 -95.46078 36777 ft 562 kts 138°
2026-05-05 01:29 34.57702 -95.39155 36766 ft 563 kts 138°
2026-05-05 01:30 34.52344 -95.32234 36796 ft 563 kts 138°
2026-05-05 01:30 34.46973 -95.25318 36803 ft 563 kts 138°
2026-05-05 01:31 34.41599 -95.18423 36800 ft 563 kts 138°
2026-05-05 01:31 34.36224 -95.11530 36757 ft 563 kts 138°
2026-05-05 01:32 34.30843 -95.04637 36814 ft 564 kts 138°
2026-05-05 01:32 34.25452 -94.97751 36817 ft 563 kts 138°
2026-05-05 01:33 34.20061 -94.90877 36834 ft 563 kts 138°
2026-05-05 01:33 34.14661 -94.84023 36822 ft 563 kts 138°
2026-05-05 01:34 34.09268 -94.77179 36790 ft 562 kts 138°
2026-05-05 01:34 34.03878 -94.70341 36812 ft 562 kts 138°
2026-05-05 01:35 33.98489 -94.63526 36817 ft 562 kts 138°
2026-05-05 01:35 33.93127 -94.56764 36838 ft 562 kts 138°
2026-05-05 01:36 33.87725 -94.49964 36828 ft 562 kts 138°
2026-05-05 01:36 33.82329 -94.43176 36803 ft 561 kts 138°
2026-05-05 01:37 33.76983 -94.36319 36825 ft 563 kts 136°
2026-05-05 01:37 33.71841 -94.29215 36845 ft 564 kts 134°
2026-05-05 01:38 33.66736 -94.22052 36854 ft 564 kts 134°
2026-05-05 01:38 33.61573 -94.14970 36855 ft 564 kts 135°
2026-05-05 01:39 33.56369 -94.07943 36856 ft 563 kts 135°
2026-05-05 01:39 33.51158 -94.00915 36867 ft 564 kts 135°
2026-05-05 01:40 33.45964 -93.93888 36874 ft 564 kts 135°
2026-05-05 01:40 33.40799 -93.86898 36878 ft 564 kts 135°
2026-05-05 01:41 33.35609 -93.79866 36902 ft 564 kts 135°
2026-05-05 01:41 33.30402 -93.72858 36903 ft 564 kts 135°
2026-05-05 01:42 33.25183 -93.65868 36895 ft 564 kts 135°
2026-05-05 01:42 33.19969 -93.58875 36890 ft 564 kts 135°
2026-05-05 01:43 33.14753 -93.51887 36885 ft 563 kts 135°
2026-05-05 01:43 33.09537 -93.44914 36848 ft 563 kts 135°
2026-05-05 01:44 33.04313 -93.37959 36870 ft 563 kts 135°
2026-05-05 01:44 32.99081 -93.31004 36894 ft 563 kts 135°
2026-05-05 01:45 32.93863 -93.24060 36897 ft 563 kts 135°
2026-05-05 01:45 32.88628 -93.17128 36897 ft 563 kts 135°
2026-05-05 01:46 32.83427 -93.10269 36865 ft 562 kts 135°
2026-05-05 01:46 32.78202 -93.03363 36908 ft 562 kts 135°
2026-05-05 01:47 32.72976 -92.96455 36908 ft 561 kts 135°
2026-05-05 01:47 32.67748 -92.89568 36907 ft 561 kts 135°
2026-05-05 01:48 32.62507 -92.82705 36907 ft 561 kts 136°
2026-05-05 01:48 32.57263 -92.75839 36872 ft 561 kts 135°
2026-05-05 01:49 32.51998 -92.69021 36893 ft 560 kts 136°
2026-05-05 01:49 32.46652 -92.62316 36913 ft 560 kts 137°
2026-05-05 01:50 32.41278 -92.55650 36911 ft 560 kts 137°
2026-05-05 01:50 32.35920 -92.48960 36920 ft 560 kts 137°
2026-05-05 01:51 32.30577 -92.42258 36914 ft 560 kts 137°
2026-05-05 01:51 32.25240 -92.35571 36934 ft 559 kts 137°
2026-05-05 01:52 32.19903 -92.28907 36962 ft 559 kts 137°
2026-05-05 01:52 32.14545 -92.22256 36957 ft 559 kts 137°
2026-05-05 01:53 32.09219 -92.15649 36950 ft 559 kts 137°
2026-05-05 01:53 32.03864 -92.09003 36918 ft 559 kts 137°
2026-05-05 01:54 31.98509 -92.02367 36940 ft 558 kts 137°
2026-05-05 01:54 31.93150 -91.95743 36961 ft 558 kts 137°
2026-05-05 01:55 31.87792 -91.89143 36987 ft 558 kts 137°
2026-05-05 01:55 31.82430 -91.82550 36971 ft 558 kts 137°
2026-05-05 01:56 31.77071 -91.75947 36926 ft 558 kts 137°
2026-05-05 01:56 31.71718 -91.69360 36953 ft 557 kts 137°
2026-05-05 01:57 31.66346 -91.62795 36973 ft 557 kts 137°
2026-05-05 01:57 31.60973 -91.56254 36986 ft 557 kts 137°
2026-05-05 01:58 31.55599 -91.49697 36997 ft 557 kts 137°
2026-05-05 01:58 31.50232 -91.43148 36948 ft 558 kts 136°
2026-05-05 01:59 31.44849 -91.36594 36969 ft 557 kts 137°
2026-05-05 01:59 31.39465 -91.30066 36993 ft 558 kts 137°
2026-05-05 02:00 31.34076 -91.23531 37002 ft 558 kts 137°
2026-05-05 02:00 31.28687 -91.17011 37000 ft 557 kts 137°
2026-05-05 02:01 31.23325 -91.10543 36961 ft 557 kts 136°
2026-05-05 02:01 31.17936 -91.04045 36998 ft 556 kts 137°
2026-05-05 02:02 31.12551 -90.97567 37007 ft 556 kts 137°
2026-05-05 02:02 31.07167 -90.91107 37013 ft 555 kts 137°
2026-05-05 02:03 31.01786 -90.84658 37012 ft 554 kts 137°
2026-05-05 02:03 30.96404 -90.78216 37013 ft 554 kts 137°
2026-05-05 02:04 30.91028 -90.71792 37008 ft 553 kts 137°
2026-05-05 02:04 30.85659 -90.65388 37019 ft 552 kts 137°
2026-05-05 02:05 30.80288 -90.58989 37024 ft 552 kts 137°
2026-05-05 02:05 30.74924 -90.52607 37027 ft 552 kts 137°
2026-05-05 02:06 30.69560 -90.46233 37031 ft 551 kts 137°
2026-05-05 02:06 30.64186 -90.39874 37034 ft 551 kts 137°
2026-05-05 02:07 30.58810 -90.33531 37035 ft 552 kts 137°
2026-05-05 02:07 30.53462 -90.27220 37019 ft 552 kts 137°
2026-05-05 02:08 30.48074 -90.20858 37018 ft 553 kts 137°
2026-05-05 02:08 30.42571 -90.14639 37019 ft 552 kts 140°
2026-05-05 02:09 30.37843 -90.09676 37001 ft 551 kts 141°
2026-05-05 02:09 30.32079 -90.03744 37028 ft 551 kts 141°
2026-05-05 02:10 30.26404 -89.97787 37047 ft 551 kts 140°
2026-05-05 02:10 30.20768 -89.91768 37046 ft 552 kts 140°
2026-05-05 02:11 30.15162 -89.85789 37046 ft 552 kts 140°
2026-05-05 02:11 30.09495 -89.79814 37024 ft 550 kts 141°
2026-05-05 02:12 30.01014 -89.70902 37050 ft 549 kts 140°
2026-05-05 02:13 29.95377 -89.64972 37057 ft 548 kts 141°
2026-05-05 02:13 29.89741 -89.59056 37056 ft 548 kts 141°
2026-05-05 02:14 29.84107 -89.53148 37054 ft 548 kts 141°
2026-05-05 02:14 29.78473 -89.47246 37039 ft 547 kts 141°
2026-05-05 02:15 29.72852 -89.41369 37054 ft 546 kts 141°
2026-05-05 02:15 29.67228 -89.35509 37062 ft 545 kts 141°
2026-05-05 02:16 29.61608 -89.29654 37058 ft 545 kts 141°
2026-05-05 02:16 29.55995 -89.23813 37055 ft 545 kts 141°
2026-05-05 02:17 29.50370 -89.17978 37030 ft 544 kts 141°
2026-05-05 02:17 29.44760 -89.12165 37051 ft 543 kts 141°
2026-05-05 02:18 29.39186 -89.06400 37061 ft 543 kts 141°
2026-05-05 02:18 29.33579 -89.00607 37061 ft 542 kts 141°
2026-05-05 02:19 29.27978 -88.94827 37061 ft 542 kts 141°
2026-05-05 02:19 29.22368 -88.89054 37038 ft 542 kts 141°
2026-05-05 02:20 29.16771 -88.83294 37076 ft 541 kts 141°
2026-05-05 02:20 29.11179 -88.77539 37072 ft 541 kts 141°
2026-05-05 02:21 29.05578 -88.71806 37068 ft 541 kts 141°
2026-05-05 02:21 28.99967 -88.66069 37062 ft 541 kts 141°
2026-05-05 02:22 28.94367 -88.60340 37011 ft 541 kts 141°
2026-05-05 02:22 28.88771 -88.54617 37058 ft 539 kts 141°
2026-05-05 02:23 28.83186 -88.48921 37066 ft 538 kts 141°
2026-05-05 02:23 28.77598 -88.43247 37078 ft 538 kts 141°
2026-05-05 02:24 28.72009 -88.37577 37056 ft 538 kts 141°
2026-05-05 02:24 28.66419 -88.31901 37061 ft 538 kts 141°
2026-05-05 02:25 28.60833 -88.26228 37044 ft 538 kts 141°
2026-05-05 02:25 28.55252 -88.20580 37060 ft 537 kts 141°
2026-05-05 02:26 28.49707 -88.14983 37062 ft 536 kts 141°
2026-05-05 02:26 28.44129 -88.09364 37059 ft 536 kts 141°
2026-05-05 02:27 28.39183 -88.03030 37054 ft 539 kts 123°
2026-05-05 02:27 28.35932 -87.95418 37050 ft 534 kts 104°
2026-05-05 02:28 28.33640 -87.87400 37032 ft 534 kts 105°
2026-05-05 02:28 28.31309 -87.79395 37039 ft 534 kts 105°
2026-05-05 02:29 28.28973 -87.71397 37044 ft 534 kts 105°
2026-05-05 02:29 28.26644 -87.63385 37056 ft 534 kts 105°
2026-05-05 02:30 28.24313 -87.55384 37054 ft 534 kts 105°
2026-05-05 02:30 28.21981 -87.47379 37053 ft 535 kts 105°
2026-05-05 02:31 28.19656 -87.39434 37054 ft 535 kts 105°
2026-05-05 02:31 28.17311 -87.31429 37067 ft 535 kts 105°
2026-05-05 02:32 28.14963 -87.23431 37063 ft 535 kts 105°
2026-05-05 02:32 28.12606 -87.15433 37064 ft 535 kts 105°
2026-05-05 02:33 28.10243 -87.07435 37064 ft 535 kts 105°
2026-05-05 02:33 28.07871 -86.99452 37063 ft 535 kts 105°
2026-05-05 02:34 28.05493 -86.91462 37075 ft 535 kts 105°
2026-05-05 02:34 28.03124 -86.83473 37050 ft 535 kts 105°
2026-05-05 02:35 28.00740 -86.75492 37045 ft 535 kts 105°
2026-05-05 02:35 27.98399 -86.67513 37051 ft 534 kts 105°
2026-05-05 02:36 27.96114 -86.59515 37053 ft 534 kts 104°
2026-05-05 02:36 27.93825 -86.51516 37064 ft 535 kts 105°
2026-05-05 02:37 27.91516 -86.43587 37057 ft 535 kts 105°
2026-05-05 02:37 27.89171 -86.35599 37058 ft 535 kts 105°
2026-05-05 02:38 27.86838 -86.27620 37062 ft 535 kts 105°
2026-05-05 02:38 27.84504 -86.19636 37058 ft 535 kts 105°
2026-05-05 02:39 27.82166 -86.11657 37073 ft 535 kts 105°
2026-05-05 02:39 27.79809 -86.03697 37068 ft 534 kts 105°
2026-05-05 02:40 27.77463 -85.95738 37064 ft 534 kts 105°
2026-05-05 02:40 27.75129 -85.87836 37066 ft 534 kts 105°
2026-05-05 02:41 27.72774 -85.79892 37064 ft 534 kts 105°
2026-05-05 02:41 27.70413 -85.71950 37066 ft 534 kts 105°
2026-05-05 02:42 27.68041 -85.64004 37069 ft 534 kts 105°
2026-05-05 02:42 27.65665 -85.56069 37068 ft 534 kts 105°
2026-05-05 02:43 27.63292 -85.48135 37063 ft 534 kts 105°
2026-05-05 02:43 27.60913 -85.40209 37081 ft 534 kts 105°
2026-05-05 02:44 27.58789 -85.32228 37059 ft 528 kts 96°
2026-05-05 02:44 27.57388 -85.24092 37066 ft 528 kts 96°
2026-05-05 02:45 27.55976 -85.15965 37062 ft 529 kts 96°
2026-05-05 02:45 27.54556 -85.07834 37062 ft 529 kts 96°
2026-05-05 02:46 27.53131 -84.99701 37079 ft 529 kts 97°
2026-05-05 02:46 27.51695 -84.91569 37063 ft 529 kts 97°
2026-05-05 02:47 27.50254 -84.83434 37060 ft 530 kts 97°
2026-05-05 02:47 27.48818 -84.75301 37062 ft 530 kts 97°
2026-05-05 02:48 27.47379 -84.67171 37065 ft 530 kts 97°
2026-05-05 02:48 27.45918 -84.59035 37071 ft 530 kts 97°
2026-05-05 02:49 27.44453 -84.50900 37065 ft 530 kts 97°
2026-05-05 02:49 27.42989 -84.42768 37066 ft 530 kts 97°
2026-05-05 02:50 27.41535 -84.34692 37066 ft 530 kts 97°
2026-05-05 02:50 27.40064 -84.26564 37073 ft 530 kts 97°
2026-05-05 02:51 27.38591 -84.18447 37054 ft 530 kts 97°
2026-05-05 02:51 27.37114 -84.10331 37059 ft 530 kts 97°
2026-05-05 02:52 27.35625 -84.02218 37054 ft 529 kts 97°
2026-05-05 02:52 27.34143 -83.94114 37017 ft 529 kts 98°
2026-05-05 02:53 27.32653 -83.86007 37051 ft 529 kts 98°
2026-05-05 02:53 27.31152 -83.77914 37055 ft 529 kts 98°
2026-05-05 02:54 27.29644 -83.69825 37054 ft 528 kts 98°
2026-05-05 02:54 27.28141 -83.61738 37049 ft 528 kts 98°
2026-05-05 02:55 27.26643 -83.53663 37046 ft 528 kts 98°
2026-05-05 02:55 27.25129 -83.45586 37049 ft 528 kts 98°
2026-05-05 02:56 27.23615 -83.37565 37057 ft 528 kts 98°
2026-05-05 02:56 27.22094 -83.29501 37054 ft 528 kts 98°
2026-05-05 02:57 27.20567 -83.21427 37051 ft 528 kts 98°
2026-05-05 02:57 27.19035 -83.13367 37076 ft 528 kts 98°
2026-05-05 02:58 27.17496 -83.05303 37055 ft 529 kts 98°
2026-05-05 02:58 27.15947 -82.97227 37045 ft 529 kts 98°
2026-05-05 02:59 27.14393 -82.89141 37043 ft 530 kts 99°
2026-05-05 02:59 27.11875 -82.81340 37045 ft 535 kts 118°
2026-05-05 03:00 27.08012 -82.74205 37071 ft 536 kts 122°
2026-05-05 03:00 27.04752 -82.68299 37059 ft 536 kts 122°
2026-05-05 03:01 27.00829 -82.61178 37047 ft 536 kts 122°
2026-05-05 03:01 26.96911 -82.54056 37020 ft 536 kts 122°
2026-05-05 03:02 26.92957 -82.46968 37034 ft 536 kts 126°